Weather History for Macomb, IL

Change the Weather History Date:

Monday, April 8, 2013

  Actual Average (KBRL) Record (KBRL)
Temperature  
Mean Temperature 63 °F 51 °F  
Max Temperature 73 °F 62 °F 84 °F (2001)
Min Temperature 53 °F 40 °F 17 °F (1972)
Degree Days  
Heating Degree Days 2 14  
Month to date heating degree days 124  
Since 1 July heating degree days 5230  
Cooling Degree Days 0 0  
Month to date cooling degree days 0  
Year to date cooling degree days 2  
Growing Degree Days 13 (Base 50)    
Moisture  
Dew Point 57 °F    
Average Humidity 81    
Maximum Humidity 100    
Minimum Humidity 53    
Precipitation  
Precipitation 0.84 in 0.11 in 1.26 in (2008)
Month to date precipitation 0.82  
Year to date precipitation 6.47  
Sea Level Pressure  
Sea Level Pressure 29.78 in    
Wind  
Wind Speed 11 mph (SSW)    
Max Wind Speed 25 mph    
Max Gust Speed 36 mph    
Visibility 9 miles    
Events Rain , Thunderstorm    
T = Trace of Precipitation, MM = Missing Value Source: NWS Daily Summary

Daily Weather History Graph

Daily Weather History Graph

Search for Another Location

Airport:

Trip Planner

Search our weather history database for the weather conditions in past years. The results will help you decide how hot, cold, wet, or windy it might be!

Date:

Astronomy

Apr. 08, 2013 Rise Set
Actual Time 6:34 AM CDT 7:34 PM CDT
Civil Twilight 6:06 AM CDT 8:02 PM CDT
Nautical Twilight 5:33 AM CDT 8:35 PM CDT
Astronomical Twilight 4:59 AM CDT 9:10 PM CDT
Moon 5:25 AM CDT (4/8) 6:09 PM CDT (4/8)
Length of Visible Light 13h 55m
Length of Day
13h 00m
Waning Crescent, 3% of the Moon is Illuminated
Apr 8
Waning Crescent
Apr 10
New
Apr 18
First Quarter
Apr 25
Full
May 2
Last Quarter

Hourly Weather History & Observations

Time (CDT) Temp. Dew Point Humidity Pressure Visibility Wind Dir Wind Speed Gust Speed Precip Events Conditions
12:15 AM 60.4 °F 43.2 °F 53% 29.78 in 10.0 mi SE 15.0 mph - N/A   Overcast
12:35 AM 60.1 °F 44.4 °F 56% 29.77 in 10.0 mi SE 12.7 mph - N/A   Overcast
12:55 AM 57.2 °F 48.7 °F 73% 29.76 in 7.0 mi SE 12.7 mph - 0.04 in Rain Heavy Rain
1:15 AM 53.1 °F 53.1 °F 100% 29.77 in 10.0 mi WSW 4.6 mph - 0.01 in Rain , Thunderstorm Light Thunderstorms and Rain
1:35 AM 53.1 °F 53.1 °F 100% 29.75 in 10.0 mi East 3.5 mph - 0.02 in Rain , Thunderstorm Light Thunderstorms and Rain
1:55 AM 53.8 °F 53.8 °F 100% 29.75 in 5.0 mi East 4.6 mph - 0.07 in Rain , Thunderstorm Thunderstorms and Rain
2:15 AM 55.0 °F 55.0 °F 100% 29.75 in 1.8 mi SSW 6.9 mph - 0.22 in Rain , Thunderstorm Heavy Thunderstorms and Rain
2:35 AM 57.2 °F 57.2 °F 100% 29.75 in 2.0 mi SW 6.9 mph - 0.39 in Rain , Thunderstorm Rain
2:55 AM 57.4 °F 57.4 °F 100% 29.73 in 4.0 mi SSW 9.2 mph - 0.52 in Rain Rain
3:15 AM 57.6 °F 57.6 °F 100% 29.69 in 5.0 mi SE 9.2 mph - 0.04 in Rain , Thunderstorm Rain
3:35 AM 57.4 °F 57.4 °F 100% 29.67 in 2.5 mi ESE 9.2 mph - 0.05 in Thunderstorm Overcast
3:55 AM 57.4 °F 57.4 °F 100% 29.65 in 3.0 mi SE 15.0 mph - 0.15 in Rain , Thunderstorm Heavy Thunderstorms and Rain
4:15 AM 57.4 °F 57.4 °F 100% 29.62 in 4.0 mi SSE 25.3 mph 32.2 mph 0.02 in Rain Light Rain
4:35 AM 57.2 °F 57.2 °F 100% 29.62 in 10.0 mi South 18.4 mph 29.9 mph 0.03 in   Overcast
4:55 AM 56.3 °F 56.3 °F 100% 29.62 in 10.0 mi SW 25.3 mph 35.7 mph 0.03 in Thunderstorm Scattered Clouds
5:15 AM 56.5 °F 56.5 °F 100% 29.63 in 10.0 mi SSW 17.3 mph 26.5 mph N/A   Clear
5:35 AM 58.5 °F 53.1 °F 82% 29.63 in 10.0 mi SW 23.0 mph 28.8 mph N/A   Clear
5:55 AM 57.4 °F 51.1 °F 79% 29.64 in 10.0 mi SW 21.9 mph 33.4 mph N/A   Mostly Cloudy
6:15 AM 56.5 °F 50.5 °F 80% 29.65 in 10.0 mi SW 19.6 mph 29.9 mph N/A   Overcast
6:35 AM 56.1 °F 50.7 °F 82% 29.69 in 10.0 mi WSW 17.3 mph 23.0 mph N/A   Overcast
6:55 AM 55.4 °F 50.9 °F 85% 29.71 in 10.0 mi WSW 16.1 mph - N/A   Overcast
7:15 AM 55.2 °F 51.3 °F 87% 29.73 in 10.0 mi WSW 13.8 mph - N/A   Overcast
7:35 AM 55.0 °F 51.4 °F 88% 29.75 in 10.0 mi WSW 15.0 mph - N/A   Overcast
7:55 AM 55.4 °F 51.8 °F 88% 29.76 in 10.0 mi WSW 13.8 mph - N/A   Overcast
8:15 AM 55.4 °F 52.3 °F 89% 29.77 in 10.0 mi WSW 15.0 mph 19.6 mph N/A   Overcast
8:35 AM 55.4 °F 52.7 °F 91% 29.77 in 10.0 mi WSW 12.7 mph - N/A   Overcast
8:55 AM 55.9 °F 52.9 °F 89% 29.77 in 10.0 mi WSW 12.7 mph - N/A   Overcast
9:15 AM 57.6 °F 54.1 °F 88% 29.77 in 10.0 mi WSW 15.0 mph - N/A   Scattered Clouds
9:35 AM 59.0 °F 55.4 °F 88% 29.77 in 10.0 mi West 12.7 mph - N/A   Scattered Clouds
9:55 AM 59.7 °F 55.8 °F 87% 29.78 in 10.0 mi West 13.8 mph - N/A   Mostly Cloudy
10:15 AM 60.3 °F 55.8 °F 85% 29.79 in 10.0 mi West 10.4 mph - N/A   Scattered Clouds
10:35 AM 60.8 °F 55.9 °F 84% 29.79 in 10.0 mi WSW 11.5 mph - N/A   Scattered Clouds
10:55 AM 61.7 °F 56.5 °F 83% 29.79 in 10.0 mi WSW 8.1 mph - N/A   Clear
11:15 AM 63.0 °F 56.1 °F 78% 29.80 in 10.0 mi WSW 8.1 mph - N/A   Clear
11:35 AM 64.4 °F 56.1 °F 74% 29.80 in 10.0 mi SW 6.9 mph - N/A   Clear
11:55 AM 64.9 °F 56.1 °F 73% 29.80 in 10.0 mi West 11.5 mph - N/A   Clear
12:15 PM 64.4 °F 55.8 °F 73% 29.80 in 10.0 mi WSW 9.2 mph - N/A   Clear
12:35 PM 64.9 °F 55.8 °F 72% 29.80 in 10.0 mi WSW 9.2 mph - N/A   Clear
12:55 PM 66.4 °F 57.2 °F 72% 29.80 in 10.0 mi SW 8.1 mph - N/A   Clear
1:15 PM 67.3 °F 56.8 °F 69% 29.80 in 10.0 mi WSW 10.4 mph - N/A   Scattered Clouds
1:35 PM 68.0 °F 57.4 °F 69% 29.80 in 10.0 mi West 8.1 mph - N/A   Scattered Clouds
1:55 PM 67.6 °F 57.0 °F 69% 29.80 in 10.0 mi West 6.9 mph - N/A   Scattered Clouds
2:15 PM 68.2 °F 56.8 °F 67% 29.80 in 10.0 mi West 8.1 mph - N/A   Mostly Cloudy
2:35 PM 68.0 °F 57.2 °F 68% 29.79 in 10.0 mi SSW 10.4 mph - N/A   Mostly Cloudy
2:55 PM 69.1 °F 57.2 °F 66% 29.79 in 10.0 mi SW 3.5 mph - N/A   Mostly Cloudy
3:35 PM 73.0 °F 59.9 °F 63% 29.80 in 10.0 mi West 6.9 mph - 0.03 in   Scattered Clouds
3:55 PM 72.1 °F 59.2 °F 64% 29.80 in 10.0 mi South 5.8 mph - 0.03 in   Mostly Cloudy
4:15 PM 73.8 °F 60.3 °F 63% 29.80 in 10.0 mi WSW 6.9 mph - N/A   Scattered Clouds
4:35 PM 73.6 °F 59.7 °F 62% 29.80 in 10.0 mi West 8.1 mph - N/A   Scattered Clouds
4:55 PM 72.9 °F 59.9 °F 64% 29.81 in 10.0 mi SW 6.9 mph - N/A   Mostly Cloudy
5:15 PM 72.5 °F 59.2 °F 63% 29.81 in 10.0 mi SSW 6.9 mph - N/A   Scattered Clouds
5:35 PM 72.1 °F 60.6 °F 67% 29.81 in 10.0 mi WSW 6.9 mph - N/A   Clear
5:55 PM 72.5 °F 59.0 °F 62% 29.82 in 10.0 mi Calm Calm - N/A   Scattered Clouds
6:15 PM 72.1 °F 61.3 °F 69% 29.82 in 10.0 mi Calm Calm - N/A   Mostly Cloudy
6:35 PM 72.0 °F 61.3 °F 69% 29.82 in 10.0 mi Calm Calm - N/A   Overcast
6:55 PM 70.9 °F 62.2 °F 74% 29.82 in 10.0 mi SE 3.5 mph - N/A   Scattered Clouds
7:15 PM 69.3 °F 62.8 °F 80% 29.82 in 10.0 mi ESE 4.6 mph - N/A   Clear
7:35 PM 68.7 °F 60.8 °F 76% 29.82 in 10.0 mi ESE 4.6 mph - N/A   Clear
7:55 PM 66.6 °F 61.3 °F 83% 29.84 in 10.0 mi NE 4.6 mph - N/A   Scattered Clouds
8:15 PM 66.2 °F 61.2 °F 84% 29.85 in 10.0 mi NNE 6.9 mph - N/A   Mostly Cloudy
8:35 PM 66.2 °F 61.0 °F 83% 29.85 in 10.0 mi East 8.1 mph - N/A   Overcast
8:55 PM 66.4 °F 60.8 °F 82% 29.85 in 10.0 mi East 4.6 mph - N/A   Overcast
9:15 PM 66.2 °F 60.4 °F 82% 29.86 in 10.0 mi ESE 8.1 mph - N/A   Overcast
9:35 PM 66.9 °F 59.7 °F 78% 29.86 in 10.0 mi East 9.2 mph - N/A   Scattered Clouds
9:55 PM 66.4 °F 59.4 °F 78% 29.87 in 10.0 mi East 8.1 mph - N/A   Scattered Clouds
10:15 PM 66.0 °F 59.0 °F 78% 29.86 in 10.0 mi ESE 9.2 mph - N/A   Clear
10:35 PM 65.3 °F 59.0 °F 80% 29.86 in 10.0 mi East 8.1 mph - N/A   Clear
10:55 PM 64.8 °F 59.0 °F 82% 29.86 in 10.0 mi ESE 6.9 mph - N/A   Clear
11:15 PM 65.7 °F 59.2 °F 80% 29.87 in 10.0 mi SE 8.1 mph - N/A   Scattered Clouds
11:35 PM 65.5 °F 59.4 °F 81% 29.87 in 10.0 mi SE 6.9 mph - N/A   Mostly Cloudy
11:55 PM 64.2 °F 59.0 °F 83% 29.87 in 10.0 mi SE 8.1 mph - N/A   Scattered Clouds